This demonstration page uses our WeatherBlox Daily Observations layout. Learn more.

Left ArrowRight Arrow

Hourly Observations for March 14, 2021

Temp ( °F °C ) Dew Point ( °F °C ) Humidity (%) Winds ( mph kmh ) Pressure ( in mb ) Visibility ( mi km ) Precip ( " mm )
12:54 am 00:54 Cloudy with Rain 45 7.2 41 5 86 86 ENE 17 28 30.11 1020 4 6 0.07 1.78
1:23 am 01:23 Cloudy with Rain 45 7.2 41 5 86 86 ENE 16 26 30.13 1020 4 6 0.09 2.29
1:54 am 01:54 Cloudy with Rain 44 6.7 41 5 89 89 ENE 15 24 30.10 1019 3 5 0.23 5.84
3:17 am 03:17 Cloudy with Heavy Rain 44 6.7 41 5 89 89 ENE 17 28 30.12 1020 3 4 0.08 2.03
3:46 am 03:46 Cloudy with Rain 44 6.7 41 5 89 89 ENE 17 28 30.10 1019 3 5 0.22 5.59
3:54 am 03:54 Cloudy with Heavy Rain 44 6.7 41 5 89 89 ENE 14 22 30.08 1019 3 4 0.25 6.35
4:10 am 04:10 Cloudy with Heavy Rain 44 6.7 41 5 89 89 E 14 22 30.11 1020 2 3 0.15 3.81
4:17 am 04:17 Cloudy with Heavy Rain 44 6.7 41 5 89 89 ENE 13 20 30.10 1019 2 3 0.21 5.33
4:35 am 04:35 Cloudy with Rain 44 6.7 41 5 89 89 ENE 16 26 30.09 1019 3 5 0.33 8.38
4:42 am 04:42 Cloudy with Heavy Rain 44 6.7 41 5 89 89 ENE 14 22 30.11 1020 3 5 0.35 8.89
4:52 am 04:52 Cloudy with Heavy Rain 45 7 41 5 87 87 ENE 21 33 30.09 1019 2 3 0.43 10.92
4:54 am 04:54 Cloudy with Heavy Rain 44 6.7 41 5 89 89 NE 21 33 30.06 1018 2 3 0.46 11.68
5:00 am 05:00 Cloudy with Heavy Rain 44 6.7 41 5 89 89 ENE 15 24 30.09 1019 2 3 0.06 1.52
5:31 am 05:31 Cloudy with Heavy Rain 43 6.1 40 4.4 89 89 ENE 21 33 30.08 1019 2 3 0.32 8.13
5:41 am 05:41 Cloudy with Heavy Rain 43 6.1 40 4.4 89 89 ENE 16 26 30.09 1019 2 3 0.42 10.67
5:54 am 05:54 Cloudy with Heavy Rain 43 6.1 40 4.4 89 89 ENE 20 31 30.05 1018 2 3 0.54 13.72
6:52 am 06:52 Cloudy with Rain 43 6 39 4 87 87 E 16 26 30.06 1018 3 5 0.42 10.67
6:54 am 06:54 Cloudy with Rain 43 6.1 40 4.4 89 89 E 20 31 30.04 1017 4 6 0.43 10.92
7:13 am 07:13 Cloudy with Heavy Rain 43 6.1 40 4.4 89 89 E 17 28 30.05 1018 3 4 0.07 1.78
7:21 am 07:21 Cloudy with Light Rain 43 6.1 40 4.4 89 89 E 20 31 30.05 1018 4 6 0.10 2.54
7:54 am 07:54 Cloudy with Light Rain 44 6.7 40 4.4 85 85 E 20 31 30.02 1017 10 16 0.11 2.79
8:54 am 08:54 Cloudy with Light Rain 42 5.6 38 3.3 85 85 E 22 35 30.01 1016 7 11 0.01 0.25
9:54 am 09:54 Cloudy with Light Rain 41 5 38 3.3 89 89 E 25 41 30.01 1016 7 11 0.10 2.54
10:10 am 10:10 Cloudy with Light Rain 41 5 37 2.8 86 86 E 22 35 30.05 1017 10 16 0.01 0.25
10:54 am 10:54 Cloudy with Light Rain 41 5 37 2.8 86 86 E 31 50 30.02 1017 3 5 0.05 1.27
11:01 am 11:01 Cloudy with Light Rain 42 5.6 38 3.3 85 85 E 30 48 30.04 1017 2 3 0.00 0.00
11:19 am 11:19 Cloudy with Light Rain 42 5.6 38 3.3 85 85 E 28 44 30.04 1017 7 11 0.01 0.25
11:54 am 11:54 Cloudy with Light Rain 41 5 36 2.2 82 82 E 30 48 30.02 1017 3 5 0.01 0.25
12:11 pm 12:11 Cloudy with Light Rain 41 5 36 2.2 82 82 E 30 48 30.03 1017 4 6 0.00 0.00
12:54 pm 12:54 Cloudy 42 5.6 36 2.2 79 79 E 31 50 30.01 1016 10 16 0.00 0.00
1:54 pm 13:54 Cloudy with Light Rain 43 6.1 37 2.8 80 80 E 29 46 29.98 1015 6 10 0.00 0.00
2:54 pm 14:54 Cloudy with Light Rain 43 6.1 35 1.7 74 74 E 31 50 29.94 1014 5 8 0.02 0.51
3:54 pm 15:54 Cloudy with Light Rain 42 5.6 37 2.8 82 82 SSE 17 28 29.96 1015 4 6 0.06 1.52
4:10 pm 16:10 Cloudy with Heavy Rain 42 5.6 37 2.8 82 82 SSE 14 22 30.01 1016 2 3 0.06 1.52
4:17 pm 16:17 Cloudy with Heavy Rain 42 5.6 37 2.8 82 82 ESE 18 30 30.02 1017 2 3 0.11 2.79
4:34 pm 16:34 Cloudy with Rain 42 5.6 38 3.3 85 85 E 18 30 29.99 1016 3 4 0.18 4.57
4:38 pm 16:38 Cloudy with Light Rain 42 5.6 38 3.3 85 85 E 14 22 29.98 1015 4 6 0.19 4.83
4:54 pm 16:54 Cloudy with Light Rain 42 5.6 38 3.3 85 85 E 13 20 29.97 1015 9 14 0.20 5.08
5:54 pm 17:54 Cloudy with Light Rain 42 5.6 38 3.3 85 85 E 22 35 29.95 1014 4 6 0.07 1.78
6:54 pm 18:54 Cloudy with Light Rain 43 6.1 38 3.3 82 82 E 23 37 29.92 1013 4 6 0.11 2.79
7:46 pm 19:46 Cloudy with Light Rain 43 6.1 39 3.9 86 86 E 21 33 29.95 1014 5 8 0.05 1.27
7:54 pm 19:54 Cloudy with Light Rain 43 6.1 39 3.9 86 86 E 21 33 29.93 1014 6 10 0.06 1.52
8:08 pm 20:08 Cloudy with Light Rain 43 6.1 39 3.9 86 86 E 18 30 29.96 1015 6 10 0.01 0.25
8:54 pm 20:54 Cloudy with Light Rain 42 5.6 39 3.9 89 89 E 16 26 29.93 1014 5 8 0.10 2.54
9:10 pm 21:10 Cloudy with Light Rain 42 5.6 39 3.9 89 89 E 18 30 29.95 1014 6 10 0.01 0.25
9:30 pm 21:30 Cloudy with Light Rain 43 6.1 39 3.9 86 86 E 18 30 29.94 1014 8 13 0.03 0.76
9:54 pm 21:54 Cloudy with Light Rain 43 6.1 39 3.9 86 86 E 17 28 29.92 1013 8 13 0.03 0.76
10:54 pm 22:54 Cloudy with Light Rain 43 6.1 39 3.9 86 86 ESE 17 28 29.94 1014 10 16 0.02 0.51
11:54 pm 23:54 Cloudy with Rain 43 6.1 40 4.4 89 89 E 10 17 29.90 1013 4 6 0.02 0.51

Powered by AerisWeather